Simultaneous Nadir Overpasses (SNOs) Predictions

Prediction of SNOs between GOES-14 and AQUA Satellite Orbit:

Table of predicted SNOs for the next 14.0 days since TLE Epoch: 8/1/2025
Index Date Time (GOES-14) GOES-14 Lat,Lon AQUA Lat,Lon Distance(km) Time Diff (sec)
1 08/03/2025 09:43:54 -0.87,-107.85 -1.59,-104.41 390.96 80
2 08/03/2025 22:03:10 0.88,-107.84 0.61,-109.07 140.25 80
3 08/05/2025 21:45:23 0.88,-107.81 1.68,-104.06 426.38 80
4 08/06/2025 10:04:30 -0.89,-107.82 -0.67,-108.68 98.92 80
5 08/08/2025 09:41:23 -0.89,-107.78 -1.78,-103.68 467.45 80
6 08/08/2025 22:00:38 0.89,-107.76 0.76,-108.32 64.14 80
7 08/11/2025 10:01:57 -0.90,-107.74 -0.84,-107.93 21.29 80
8 08/13/2025 22:00:42 0.89,-107.69 0.89,-107.56 14.17 80
